Location: Plymouth
(43.7570°N, 71.6890°W)
Time: 19:05:02
(UTC-04:00)

Amateur Radio Satellites - All Passes

Search period start: 27 July 2016 18:35
Search period end: 28 July 2016 18:35
Location: Plymouth, 43.7570°N, 71.6890°W

Satellite Date Start Highest point End Downlink Frequencies (MHz)
Time Altitude Azimuth
PHONESAT 2.4 27 Jul 18:36:22 18:39:18 41° 173° (S) 18:42:14 2401.200-2431.200
CUBESAT XI-V 27 Jul 18:38:19 18:42:49 53° 288° (WNW) 18:47:19 437.345
NOAA 18 27 Jul 18:41:24 18:46:47 53° 259° (W) 18:52:14 137.9125
STRAND 1 27 Jul 18:42:05 18:43:27 11° 87° (E) 18:44:48 437.568
GOMX 1 27 Jul 18:42:23 18:46:30 61° 259° (W) 18:50:50 467.674
CINEMA 3 27 Jul 18:42:48 18:46:06 20° 63° (ENE) 18:49:32 145.822/145.860
RS-15 27 Jul 18:49:32 18:56:15 17° 265° (W) 19:02:56 29.354- 29.394
YUBILEINY 27 Jul 18:53:20 18:58:19 16° 56° (NE) 19:03:14 435.215
BEESAT 3 27 Jul 18:53:39 18:57:34 86° 304° (WNW) 19:01:33 437.485
HO-68 27 Jul 18:55:11 19:01:43 40° 63° (ENE) 19:08:19 435.675
STARS 27 Jul 18:57:45 18:59:01 11° 301° (WNW) 19:00:18 437.465
BEESAT 2 27 Jul 19:00:39 19:04:32 60° 121° (ESE) 19:08:29 435.950
SEEDS 27 Jul 19:09:16 19:12:17 19° 65° (ENE) 19:15:19 437.485
PCSat 27 Jul 19:12:21 19:17:35 52° 115° (ESE) 19:22:51 145.827
Cubesat XI-IV 27 Jul 19:19:31 19:23:56 26° 266° (W) 19:28:23 437.490
COMPASS 1 27 Jul 19:20:25 19:23:15 18° 65° (ENE) 19:26:06 437.405
UWE-3 27 Jul 19:25:36 19:27:25 12° 59° (ENE) 19:29:15 435.000/436.395/437.385
CUTE-I 27 Jul 19:44:34 19:47:46 16° 270° (W) 19:50:58 437.470
CUBEBUG 2 27 Jul 19:46:15 19:50:07 27° 66° (ENE) 19:54:04 437.445
AAUSAT CUBESAT 2 27 Jul 19:47:29 19:51:00 27° 68° (ENE) 19:54:29 437.432
CANX-2 27 Jul 19:51:44 19:56:01 87° 82° (E) 20:00:19 2200.000
Oscar 11 27 Jul 20:04:26 20:07:27 19° 64° (ENE) 20:10:29 145.826/435.025
CUTE 1.7 + AOD 2 27 Jul 20:05:05 20:09:22 78° 258° (WSW) 20:13:39 437.475
DOVE 4 27 Jul 20:12:34 20:15:21 17° 270° (W) 20:18:16 437.250
PHONESAT 2.4 27 Jul 20:12:40 20:15:33 38° 190° (S) 20:18:27 2401.200-2431.200
STRAND 1 27 Jul 20:18:10 20:23:20 90° 334° (NNW) 20:28:26 437.568
CINEMA 3 27 Jul 20:18:29 20:22:51 48° 262° (W) 20:27:27 145.822/145.860
Cosmos 2491 27 Jul 20:18:56 20:25:14 23° 79° (E) 20:31:31 435.465 / 435.565
Cosmos 2504 27 Jul 20:19:13 20:24:07 17° 57° (ENE) 20:28:48 435.465 / 435.565
O/OREOS (USA 219) 27 Jul 20:33:33 20:37:55 56° 109° (ESE) 20:42:19 437.305
BEESAT 3 27 Jul 20:33:59 20:35:53 13° 324° (NW) 20:37:47 437.485
AO-85 27 Jul 20:36:59 20:38:41 12° 29° (NNE) 20:40:21 145.980
ISS 27 Jul 20:39:11 20:41:38 20° 135° (SE) 20:44:05 145.825
BEESAT 2 27 Jul 20:40:00 20:42:44 18° 320° (NW) 20:45:30 435.950
HO-68 27 Jul 20:42:35 20:49:21 44° 261° (W) 20:56:12 435.675
SEEDS 27 Jul 20:43:44 20:47:43 40° 262° (W) 20:51:43 437.485
YUBILEINY 27 Jul 20:48:07 20:56:59 71° 79° (E) 21:05:45 435.215
COMPASS 1 27 Jul 20:54:30 20:58:30 43° 262° (W) 21:02:30 437.405
PCSat 27 Jul 20:56:37 21:01:15 28° 314° (NW) 21:05:56 145.827
FUNcube-1 27 Jul 20:56:52 21:01:19 58° 73° (ENE) 21:05:50 145.935
ZACube-1 27 Jul 20:58:03 21:02:32 64° 74° (ENE) 21:07:06 437.345
UWE-3 27 Jul 20:58:34 21:03:09 85° 257° (WSW) 21:07:51 435.000/436.395/437.385
AIST 2 27 Jul 21:05:22 21:09:25 60° 120° (ESE) 21:13:30 435.215
M-CUBED/EXP-1 PRIME 27 Jul 21:11:32 21:15:11 44° 65° (ENE) 21:19:09 437.505
PRISM 27 Jul 21:19:33 21:23:35 55° 101° (E) 21:27:36 437.425
CUBEBUG 2 27 Jul 21:22:23 21:26:35 34° 264° (W) 21:30:53 437.445
AAUSAT CUBESAT 2 27 Jul 21:22:52 21:26:25 27° 265° (W) 21:29:58 437.432
AUBIESAT-1 27 Jul 21:36:58 21:40:47 71° 69° (ENE) 21:44:57 437.475
Oscar 11 27 Jul 21:39:05 21:43:16 45° 261° (W) 21:47:27 145.826/435.025
DELFI C3 27 Jul 21:40:12 21:44:11 83° 77° (ENE) 21:48:10 145.870
PHONESAT 2.4 27 Jul 21:49:41 21:51:36 15° 205° (SSW) 21:53:30 2401.200-2431.200
STRAND 1 27 Jul 21:59:25 22:01:45 13° 303° (WNW) 22:04:05 437.568
HUMSAT D 27 Jul 22:07:51 22:12:09 81° 76° (ENE) 22:16:29 437.325/437.525
Cosmos 2504 27 Jul 22:10:52 22:19:07 79° 81° (E) 22:26:43 435.465 / 435.565
Cosmos 2491 27 Jul 22:12:20 22:21:03 79° 279° (W) 22:29:49 435.465 / 435.565
ISS 27 Jul 22:14:36 22:17:49 58° 332° (NNW) 22:21:02 145.825
O/OREOS (USA 219) 27 Jul 22:14:39 22:17:42 18° 308° (NW) 22:20:44 437.305
AO-85 27 Jul 22:15:50 22:20:15 56° 52° (NE) 22:24:17 145.980
AISAT 27 Jul 22:19:24 22:21:31 13° 60° (ENE) 22:23:38 437.250
TIGRISAT 27 Jul 22:20:05 22:23:46 23° 93° (E) 22:27:20 435.000
FUNcube-1 27 Jul 22:35:19 22:37:55 15° 270° (W) 22:40:34 145.935
UNISAT 6 27 Jul 22:36:15 22:40:30 35° 96° (E) 22:44:39 437.425
ZACube-1 27 Jul 22:36:56 22:39:15 14° 271° (W) 22:41:36 437.345
AIST 2 27 Jul 22:45:19 22:48:16 19° 320° (NW) 22:51:14 435.215
YUBILEINY 27 Jul 22:46:03 22:52:57 27° 280° (W) 22:59:48 435.215
M-CUBED/EXP-1 PRIME 27 Jul 22:47:42 22:50:03 15° 265° (W) 22:52:30 437.505
50 SAT 27 Jul 22:53:45 22:56:43 24° 68° (ENE) 22:59:41 437.505
ESTCUBE 1 27 Jul 22:54:16 22:58:34 46° 71° (ENE) 23:02:51 437.505/2401.250
PRISM 27 Jul 22:56:15 22:58:27 14° 298° (WNW) 23:00:39 437.425
SPROUT 27 Jul 23:01:08 23:03:41 16° 63° (ENE) 23:06:15 437.525
CUBEBUG 1 27 Jul 23:08:02 23:12:06 42° 70° (ENE) 23:16:11 437.445
VELOX 1 27 Jul 23:08:30 23:12:33 38° 69° (ENE) 23:16:38 145.980
ANTELSAT 27 Jul 23:14:28 23:19:08 85° 101° (E) 23:23:41 437.575/2403.000
NANOSAT C BR1 27 Jul 23:38:54 23:42:22 23° 94° (E) 23:45:48 145.865
DUCHIFAT 1 27 Jul 23:42:50 23:46:21 24° 95° (E) 23:49:49 145.980
DX 1 27 Jul 23:50:26 23:54:45 79° 75° (ENE) 23:59:06 434.975-435.025
ISS 27 Jul 23:52:07 23:54:44 21° 351° (N) 23:57:21 145.825
AISAT 27 Jul 23:53:04 23:57:25 69° 257° (WSW) 00:01:50 437.250
JAS-2 27 Jul 23:54:06 23:56:41 13° 90° (E) 23:59:20 435.910
TISAT 1 27 Jul 23:54:29 23:56:45 14° 62° (ENE) 23:59:01 437.305
BUGSAT 1 27 Jul 23:55:28 23:57:57 15° 91° (E) 00:00:26 437.445
TIGRISAT 27 Jul 23:56:15 00:00:35 39° 290° (WNW) 00:04:47 435.000
AO-85 27 Jul 23:57:37 00:00:07 15° 252° (WSW) 00:02:31 145.980
QB50P1 28 Jul 00:01:16 00:05:23 43° 99° (E) 00:09:27 145.935-145.965
UKube-1 28 Jul 00:02:50 00:07:08 85° 78° (ENE) 00:11:29 .
Cosmos 2504 28 Jul 00:05:49 00:11:24 21° 282° (WNW) 00:16:43 435.465 / 435.565
POPSAT HIP 1 28 Jul 00:07:44 00:11:56 50° 100° (E) 00:16:05 437.405
UNISAT 6 28 Jul 00:13:13 00:17:04 26° 294° (WNW) 00:20:49 437.425
Cosmos 2491 28 Jul 00:14:03 00:19:29 18° 302° (WNW) 00:24:57 435.465 / 435.565
AIST 1 28 Jul 00:20:39 00:24:58 61° 79° (E) 00:29:17
50 SAT 28 Jul 00:27:16 00:30:16 24° 264° (W) 00:33:17 437.505
QB50P2 28 Jul 00:28:47 00:33:06 88° 294° (WNW) 00:37:24 145.880/145.840
POLYITAN 1 28 Jul 00:31:26 00:35:46 87° 281° (WNW) 00:40:02 437.675
ESTCUBE 1 28 Jul 00:32:30 00:35:36 18° 268° (W) 00:38:43 437.505/2401.250
SPROUT 28 Jul 00:35:00 00:39:12 54° 260° (W) 00:43:26 437.525
CUBEBUG 1 28 Jul 00:45:33 00:48:34 18° 268° (W) 00:51:37 437.445
VELOX 1 28 Jul 00:45:48 00:49:09 21° 267° (W) 00:52:30 145.980
ANTELSAT 28 Jul 00:53:23 00:55:07 12° 301° (WNW) 00:56:50 437.575/2403.000
GONETS M04 28 Jul 00:56:47 01:03:21 22° 62° (ENE) 01:09:54
ITUPSAT 1 28 Jul 00:58:09 01:00:57 16° 60° (ENE) 01:03:46 437.325
Cosmos 2499 28 Jul 01:09:30 01:14:11 16° 58° (ENE) 01:18:40 435.465 / 435.565
NANOSAT C BR1 28 Jul 01:14:19 01:18:08 32° 291° (WNW) 01:21:57 145.865
Oscar 19 28 Jul 01:17:53 01:21:47 21° 93° (E) 01:25:39 437.125/150
DUCHIFAT 1 28 Jul 01:18:15 01:22:03 31° 291° (WNW) 01:25:50 145.980
TISAT 1 28 Jul 01:27:47 01:31:55 59° 259° (W) 01:36:07 437.305
ISS 28 Jul 01:29:13 01:31:55 23° 12° (NNE) 01:34:37 145.825
BUGSAT 1 28 Jul 01:29:28 01:33:37 51° 288° (WNW) 01:37:44 437.445
BEESAT 3 28 Jul 01:33:29 01:35:20 13° 36° (NE) 01:37:11 437.485
JAS-2 28 Jul 01:37:01 01:42:19 79° 286° (WNW) 01:48:03 435.910
QB50P1 28 Jul 01:37:48 01:40:50 19° 296° (WNW) 01:43:52 145.935-145.965
POPSAT HIP 1 28 Jul 01:44:34 01:47:19 17° 297° (WNW) 01:50:04 437.405
SWISSCUBE 28 Jul 01:48:40 01:53:17 50° 71° (ENE) 01:57:56 437.505
AIST 1 28 Jul 02:00:17 02:02:00 12° 276° (W) 02:03:44
BEESAT 28 Jul 02:09:47 02:14:33 73° 74° (ENE) 02:19:21 436.000
PCSat 28 Jul 02:16:59 02:19:30 13° 33° (NNE) 02:22:01 145.827
ITUPSAT 1 28 Jul 02:33:27 02:38:14 69° 257° (WSW) 02:43:02 437.325
Gurwin Techsat 1B 28 Jul 02:43:20 02:48:36 58° 101° (E) 02:53:49 435.225
STARS 28 Jul 02:44:21 02:45:11 10° 58° (ENE) 02:46:02 437.465
MOZHAYETS 4 28 Jul 02:44:54 02:48:27 22° 65° (ENE) 02:51:59
GONETS M04 28 Jul 02:52:30 03:01:21 86° 264° (W) 03:10:13
ITAMSAT 1 28 Jul 02:53:44 02:57:55 24° 94° (E) 03:02:03 435.822/435.867
Oscar 19 28 Jul 02:56:22 03:01:22 51° 290° (WNW) 03:06:22 437.125/150
Cosmos 2499 28 Jul 03:00:53 03:08:49 82° 81° (E) 03:16:08 435.465 / 435.565
DANDE 28 Jul 03:04:37 03:05:37 11° 91° (E) 03:06:33 436.750
ISS 28 Jul 03:05:28 03:08:44 77° 29° (NNE) 03:11:59 145.825
BEESAT 3 28 Jul 03:09:40 03:13:40 83° 57° (ENE) 03:17:37 437.485
BEESAT 2 28 Jul 03:17:25 03:21:22 54° 52° (NE) 03:25:17 435.950
JAS-2 28 Jul 03:25:02 03:26:40 11° 304° (WNW) 03:28:21 435.910
SWISSCUBE 28 Jul 03:27:58 03:31:21 19° 268° (W) 03:34:45 437.505
KKS-1 28 Jul 03:40:05 03:44:30 74° 74° (ENE) 03:48:59 437.445
AIST 2 28 Jul 03:49:00 03:50:12 11° 33° (NNE) 03:51:24 435.215
BEESAT 28 Jul 03:50:41 03:52:51 13° 271° (W) 03:55:02 436.000
AO-7 28 Jul 03:52:52 04:00:34 39° 98° (E) 04:08:11 29.400- 29.500
PCSat 28 Jul 03:58:47 04:04:09 56° 55° (NE) 04:09:28 145.827
CUBESAT XI-V 28 Jul 04:06:50 04:10:07 20° 64° (ENE) 04:13:25 437.345
CUSAT 1 28 Jul 04:13:26 04:17:18 48° 282° (WNW) 04:20:22 437.405
STARS 28 Jul 04:16:26 04:20:49 89° 70° (ENE) 04:25:16 437.465
MOZHAYETS 4 28 Jul 04:20:58 04:25:21 42° 262° (W) 04:29:45
Gurwin Techsat 1B 28 Jul 04:24:13 04:28:06 21° 299° (WNW) 04:31:59 435.225
ITAMSAT 1 28 Jul 04:32:38 04:37:34 45° 291° (WNW) 04:42:28 435.822/435.867
DANDE 28 Jul 04:42:44 04:48:13 76° 279° (W) 04:52:18 436.750
ISS 28 Jul 04:42:55 04:44:47 14° 228° (SW) 04:46:37 145.825
GONETS M04 28 Jul 04:51:27 04:56:48 18° 284° (WNW) 05:02:12
RS-15 28 Jul 04:52:16 04:58:44 17° 95° (E) 05:05:21 29.354- 29.394
HORYU 2 28 Jul 04:54:38 04:57:57 20° 93° (E) 05:01:13 437.375
Cosmos 2499 28 Jul 04:55:47 05:00:46 19° 283° (WNW) 05:05:33 435.465 / 435.565
BEESAT 2 28 Jul 04:56:28 04:58:46 15° 249° (WSW) 05:01:04 435.950
O/OREOS (USA 219) 28 Jul 05:03:46 05:06:48 17° 52° (NE) 05:09:50 437.305
KKS-1 28 Jul 05:20:15 05:21:36 11° 271° (W) 05:22:56 437.445
AIST 2 28 Jul 05:25:26 05:29:33 59° 52° (NE) 05:33:41 435.215
CUBESAT XI-V 28 Jul 05:42:43 05:47:10 47° 261° (W) 05:51:38 437.345
PCSat 28 Jul 05:42:59 05:47:08 23° 253° (WSW) 05:51:16 145.827
BRITE-PL 28 Jul 05:44:57 05:48:42 22° 94° (E) 05:52:39 437.365/2234.400
AO-7 28 Jul 05:45:31 05:53:30 52° 298° (WNW) 06:01:27 29.400- 29.500
Cubesat XI-IV 28 Jul 05:55:46 05:58:53 16° 90° (E) 06:02:01 437.490
STRAND 1 28 Jul 05:57:58 06:01:42 21° 62° (ENE) 06:05:26 437.568
LilacSat-2 28 Jul 06:04:29 06:06:37 14° 91° (E) 06:08:45 437.200
CUTE-I 28 Jul 06:18:10 06:22:33 25° 94° (E) 06:26:54 437.470
Cosmos 2491 28 Jul 06:27:27 06:30:30 12° 52° (NE) 06:33:33 435.465 / 435.565
HORYU 2 28 Jul 06:30:27 06:34:41 42° 290° (WNW) 06:38:52 437.375
DOVE 4 28 Jul 06:31:22 06:34:14 15° 89° (E) 06:37:06 437.250
NOAA 15 28 Jul 06:34:42 06:39:46 46° 99° (E) 06:44:49 137.62
GOMX 1 28 Jul 06:41:44 06:46:26 37° 97° (E) 06:51:21 467.674
O/OREOS (USA 219) 28 Jul 06:42:08 06:46:37 60° 250° (WSW) 06:51:05 437.305
RS-15 28 Jul 06:57:25 07:08:46 72° 117° (ESE) 07:20:47 29.354- 29.394
SO-50 28 Jul 06:57:37 07:00:37 16° 109° (ESE) 07:03:36 436.795
NOAA 18 28 Jul 07:01:55 07:07:25 59° 101° (ESE) 07:12:51 137.9125
AIST 2 28 Jul 07:05:13 07:07:35 15° 250° (WSW) 07:09:57 435.215
BRITE-PL 28 Jul 07:22:43 07:27:20 47° 288° (WNW) 07:32:17 437.365/2234.400
Cubesat XI-IV 28 Jul 07:34:09 07:39:30 72° 287° (WNW) 07:44:48 437.490
STRAND 1 28 Jul 07:35:25 07:40:28 56° 259° (W) 07:45:33 437.568
CANX-2 28 Jul 07:37:05 07:39:12 13° 90° (E) 07:41:18 2200.000
LilacSat-2 28 Jul 07:37:28 07:41:10 43° 288° (WNW) 07:44:48 437.200
AO-7 28 Jul 07:40:47 07:44:22 13° 320° (NW) 07:47:56 29.400- 29.500
CUTE 1.7 + AOD 2 28 Jul 07:49:50 07:52:30 16° 91° (E) 07:55:10 437.475
CUTE-I 28 Jul 07:57:43 08:02:46 45° 292° (WNW) 08:07:48 437.470
YUBILEINY 28 Jul 07:58:57 08:03:34 16° 74° (ENE) 08:08:10 435.215
DOVE 4 28 Jul 08:07:14 08:12:23 75° 285° (WNW) 08:17:40 437.250
HO-68 28 Jul 08:08:32 08:15:03 35° 96° (E) 08:21:29 435.675
PRISM 28 Jul 08:10:02 08:13:56 46° 72° (ENE) 08:17:51 437.425
CINEMA 3 28 Jul 08:11:33 08:16:17 40° 97° (E) 08:20:57 145.822/145.860
NOAA 15 28 Jul 08:15:02 08:19:17 25° 297° (WNW) 08:23:31 137.62
GOMX 1 28 Jul 08:20:01 08:24:24 30° 292° (WNW) 08:28:58 467.674
Cosmos 2491 28 Jul 08:21:03 08:29:39 57° 76° (ENE) 08:38:15 435.465 / 435.565
SEEDS 28 Jul 08:26:19 08:29:57 28° 95° (E) 08:33:34 437.485
SO-50 28 Jul 08:35:42 08:40:34 70° 305° (NW) 08:45:26 436.795
COMPASS 1 28 Jul 08:36:12 08:39:40 25° 95° (E) 08:43:07 437.405
ANTELSAT 28 Jul 08:41:17 08:42:37 11° 58° (ENE) 08:43:58 437.575/2403.000
NOAA 18 28 Jul 08:43:29 08:47:38 22° 300° (WNW) 08:51:46 137.9125
FUNcube-1 28 Jul 08:46:59 08:47:26 10° 87° (E) 08:47:53 145.935
ZACube-1 28 Jul 08:47:34 08:49:03 11° 88° (E) 08:50:33 437.345
UWE-3 28 Jul 08:48:01 08:51:17 19° 91° (E) 08:54:28 435.000/436.395/437.385
Cosmos 2504 28 Jul 09:02:09 09:05:43 13° 72° (ENE) 09:09:17 435.465 / 435.565
AAUSAT CUBESAT 2 28 Jul 09:03:07 09:07:01 40° 98° (E) 09:10:53 437.432
RS-15 28 Jul 09:11:11 09:22:12 44° 324° (NW) 09:33:46 29.354- 29.394
CANX-2 28 Jul 09:11:16 09:15:25 55° 287° (WNW) 09:19:31 2200.000
CUBEBUG 2 28 Jul 09:11:33 09:16:07 47° 98° (E) 09:20:34 437.445
Cubesat XI-IV 28 Jul 09:17:08 09:18:37 11° 306° (NW) 09:20:06 437.490
TIGRISAT 28 Jul 09:19:49 09:23:33 24° 65° (ENE) 09:27:20 435.000
CUTE 1.7 + AOD 2 28 Jul 09:24:33 09:28:36 45° 288° (WNW) 09:32:35 437.475
Oscar 11 28 Jul 09:25:05 09:28:51 28° 95° (E) 09:32:35 145.826/435.025
UNISAT 6 28 Jul 09:35:57 09:40:12 36° 69° (ENE) 09:44:30 437.425
PRISM 28 Jul 09:47:09 09:49:30 15° 268° (W) 09:51:53 437.425
DOVE 4 28 Jul 09:47:40 09:49:14 11° 302° (WNW) 09:50:50 437.250
CINEMA 3 28 Jul 09:49:01 09:53:12 27° 294° (WNW) 09:57:21 145.822/145.860
YUBILEINY 28 Jul 09:50:01 09:58:46 77° 95° (E) 10:07:37 435.215
HUMSAT D 28 Jul 09:52:15 09:53:43 12° 89° (E) 09:55:10 437.325/437.525
HO-68 28 Jul 09:56:03 10:02:54 48° 295° (WNW) 10:09:43 435.675
SEEDS 28 Jul 10:02:07 10:05:34 25° 292° (WNW) 10:09:00 437.485
COMPASS 1 28 Jul 10:11:40 10:15:11 28° 292° (WNW) 10:18:42 437.405
ANTELSAT 28 Jul 10:13:54 10:18:33 86° 76° (ENE) 10:23:17 437.575/2403.000
Cosmos 2491 28 Jul 10:18:33 10:26:02 33° 276° (W) 10:33:33 435.465 / 435.565
SO-50 28 Jul 10:19:06 10:21:56 15° 327° (NNW) 10:24:44 436.795
FUNcube-1 28 Jul 10:19:46 10:24:17 80° 284° (WNW) 10:28:39 145.935
ZACube-1 28 Jul 10:21:23 10:25:54 72° 285° (WNW) 10:30:15 437.345
M-CUBED/EXP-1 PRIME 28 Jul 10:23:27 10:27:40 32° 101° (E) 10:31:51 437.505
UWE-3 28 Jul 10:23:34 10:27:59 46° 289° (WNW) 10:32:17 435.000/436.395/437.385
NANOSAT C BR1 28 Jul 10:32:30 10:35:44 21° 65° (ENE) 10:38:59 145.865
DUCHIFAT 1 28 Jul 10:36:10 10:39:25 22° 66° (ENE) 10:42:42 145.980
AAUSAT CUBESAT 2 28 Jul 10:39:21 10:42:13 18° 295° (WNW) 10:45:04 437.432
BUGSAT 1 28 Jul 10:47:18 10:49:14 13° 61° (ENE) 10:51:10 437.445
AUBIESAT-1 28 Jul 10:48:22 10:52:52 46° 104° (ESE) 10:57:17 437.475
Cosmos 2504 28 Jul 10:48:38 10:57:22 66° 92° (E) 11:06:04 435.465 / 435.565
CUBEBUG 2 28 Jul 10:48:56 10:52:22 20° 296° (WNW) 10:55:45 437.445
DELFI C3 28 Jul 10:51:12 10:55:08 70° 285° (WNW) 10:59:02 145.870
QB50P1 28 Jul 10:54:48 10:58:43 37° 70° (ENE) 11:02:41 145.935-145.965
TIGRISAT 28 Jul 10:55:42 11:00:01 38° 263° (W) 11:04:25 435.000
POPSAT HIP 1 28 Jul 11:01:14 11:05:16 43° 71° (ENE) 11:09:20 437.405
Oscar 11 28 Jul 11:01:16 11:04:55 27° 292° (WNW) 11:08:32 145.826/435.025
UNISAT 6 28 Jul 11:13:09 11:16:58 25° 266° (W) 11:20:51 437.425
QB50P2 28 Jul 11:22:14 11:26:29 80° 77° (ENE) 11:30:48 145.880/145.840
POLYITAN 1 28 Jul 11:24:52 11:29:08 82° 74° (ENE) 11:33:27 437.675
HUMSAT D 28 Jul 11:25:37 11:29:47 63° 285° (WNW) 11:33:52 437.325/437.525
RS-15 28 Jul 11:29:13 11:39:01 27° 358° (N) 11:49:02 29.354- 29.394
DX 1 28 Jul 11:39:12 11:41:00 12° 90° (E) 11:42:48 434.975-435.025
AISAT 28 Jul 11:42:33 11:45:52 20° 93° (E) 11:49:11 437.250
HO-68 28 Jul 11:47:39 11:48:55 11° 316° (NW) 11:50:10 435.675
YUBILEINY 28 Jul 11:49:36 11:56:33 25° 297° (WNW) 12:03:35 435.215
UKube-1 28 Jul 11:50:24 11:52:21 13° 90° (E) 11:54:17 .
JAS-2 28 Jul 11:50:41 11:56:23 50° 70° (ENE) 12:01:35 435.910
50 SAT 28 Jul 11:54:16 11:57:12 23° 95° (E) 12:00:06 437.505
ANTELSAT 28 Jul 11:55:08 11:55:53 10° 273° (W) 11:56:38 437.575/2403.000
M-CUBED/EXP-1 PRIME 28 Jul 11:57:56 12:02:06 32° 297° (WNW) 12:06:16 437.505
NANOSAT C BR1 28 Jul 12:07:19 12:11:14 36° 262° (W) 12:15:12 145.865
DUCHIFAT 1 28 Jul 12:11:01 12:14:54 35° 263° (W) 12:18:50 145.980
BUGSAT 1 28 Jul 12:20:02 12:24:04 62° 258° (WSW) 12:28:13 437.445
SPROUT 28 Jul 12:20:04 12:23:30 23° 94° (E) 12:26:55 437.525
ESTCUBE 1 28 Jul 12:21:47 12:26:18 85° 104° (ESE) 12:30:47 437.505/2401.250
AUBIESAT-1 28 Jul 12:23:23 12:27:00 23° 301° (WNW) 12:30:36 437.475
Gurwin Techsat 1B 28 Jul 12:28:42 12:31:46 16° 58° (ENE) 12:34:50 435.225
CUBEBUG 1 28 Jul 12:30:58 12:35:23 72° 102° (ESE) 12:39:48 437.445
QB50P1 28 Jul 12:31:28 12:34:37 20° 267° (W) 12:37:48 145.935-145.965
AO-85 28 Jul 12:32:05 12:35:28 17° 109° (ESE) 12:38:46 145.980
VELOX 1 28 Jul 12:33:05 12:37:32 64° 102° (ESE) 12:41:57 145.980
Oscar 19 28 Jul 12:35:47 12:40:23 35° 67° (ENE) 12:45:01 437.125/150
POPSAT HIP 1 28 Jul 12:38:23 12:41:15 18° 268° (W) 12:44:10 437.405
Cosmos 2504 28 Jul 12:43:43 12:51:21 31° 293° (WNW) 12:58:58 435.465 / 435.565
AIST 1 28 Jul 12:51:30 12:55:17 32° 91° (E) 12:59:07
AO-7 28 Jul 13:05:32 13:09:58 16° 43° (NE) 13:14:25 29.400- 29.500
TISAT 1 28 Jul 13:11:04 13:14:09 19° 93° (E) 13:17:13 437.305
DX 1 28 Jul 13:13:16 13:17:38 66° 286° (WNW) 13:21:58 434.975-435.025
AISAT 28 Jul 13:18:18 13:22:30 41° 290° (WNW) 13:26:42 437.250
UKube-1 28 Jul 13:24:31 13:28:48 62° 287° (WNW) 13:33:04 .
50 SAT 28 Jul 13:27:52 13:30:46 23° 292° (WNW) 13:33:39 437.505
JAS-2 28 Jul 13:37:05 13:41:42 23° 266° (W) 13:46:02 435.910
RS-15 28 Jul 13:44:50 13:56:10 40° 32° (NNE) 14:07:31 29.354- 29.394
SWISSCUBE 28 Jul 13:50:01 13:51:20 11° 88° (E) 13:52:39 437.505
Cosmos 2499 28 Jul 13:50:23 13:54:01 13° 73° (ENE) 13:57:36 435.465 / 435.565
SPROUT 28 Jul 13:55:36 13:59:30 34° 291° (WNW) 14:03:24 437.525
ESTCUBE 1 28 Jul 14:00:58 14:02:25 11° 301° (WNW) 14:03:52 437.505/2401.250
GONETS M04 28 Jul 14:01:17 14:07:33 23° 79° (ENE) 14:13:51
Gurwin Techsat 1B 28 Jul 14:05:43 14:11:02 81° 256° (WSW) 14:16:24 435.225
CUBEBUG 1 28 Jul 14:09:07 14:11:06 13° 299° (WNW) 14:13:05 437.445
BEESAT 28 Jul 14:09:47 14:12:48 16° 91° (E) 14:15:47 436.000
AO-85 28 Jul 14:10:04 14:15:27 76° 305° (NW) 14:20:35 145.980
VELOX 1 28 Jul 14:11:03 14:13:29 15° 299° (WNW) 14:15:53 145.980
ITAMSAT 1 28 Jul 14:12:39 14:17:33 43° 69° (ENE) 14:22:29 435.822/435.867
Oscar 19 28 Jul 14:15:15 14:19:43 30° 264° (W) 14:24:14 437.125/150
AIST 1 28 Jul 14:29:40 14:32:57 22° 289° (WNW) 14:36:16
ITUPSAT 1 28 Jul 14:33:01 14:37:05 27° 95° (E) 14:41:06 437.325
CUSAT 1 28 Jul 14:43:15 14:46:15 85° 259° (W) 14:50:01 437.405
TISAT 1 28 Jul 14:45:58 14:49:57 39° 290° (WNW) 14:53:55 437.305
AO-7 28 Jul 14:52:54 15:01:03 60° 65° (ENE) 15:09:15 29.400- 29.500
DANDE 28 Jul 15:19:28 15:22:05 71° 79° (ENE) 15:24:58 436.750
SWISSCUBE 28 Jul 15:24:57 15:29:44 82° 284° (WNW) 15:34:29 437.505
SO-50 28 Jul 15:26:13 15:30:02 24° 41° (NE) 15:33:46 436.795
KKS-1 28 Jul 15:31:30 15:33:32 13° 90° (E) 15:35:35 437.445
Cosmos 2499 28 Jul 15:36:45 15:45:31 67° 93° (E) 15:54:02 435.465 / 435.565
BEESAT 28 Jul 15:46:16 15:50:56 57° 288° (WNW) 15:55:35 436.000
ITAMSAT 1 28 Jul 15:52:52 15:57:10 26° 266° (W) 16:01:30 435.822/435.867
AO-85 28 Jul 15:53:19 15:56:43 17° 324° (NW) 16:00:00 145.980
HORYU 2 28 Jul 15:53:51 15:57:22 23° 65° (ENE) 16:00:54 437.375
GONETS M04 28 Jul 15:54:39 16:03:21 79° 280° (W) 16:12:08
PHONESAT 2.4 28 Jul 15:56:50 15:57:47 11° 151° (SSE) 15:58:45 2401.200-2431.200
RS-15 28 Jul 15:57:49 16:10:13 85° 240° (WSW) 16:22:27 29.354- 29.394
STARS 28 Jul 16:05:51 16:08:24 15° 91° (E) 16:10:56 437.465
ITUPSAT 1 28 Jul 16:10:38 16:14:57 34° 292° (WNW) 16:19:13 437.325
MOZHAYETS 4 28 Jul 16:14:26 16:18:46 40° 98° (E) 16:23:02
NOAA 15 28 Jul 16:20:07 16:22:19 13° 56° (NE) 16:24:30 137.62
AO-7 28 Jul 16:46:52 16:54:12 33° 264° (W) 17:01:36 29.400- 29.500
NOAA 18 28 Jul 16:51:09 16:55:03 20° 59° (ENE) 16:58:57 137.9125
BRITE-PL 28 Jul 16:58:05 17:01:22 23° 66° (ENE) 17:04:42 437.365/2234.400
SWISSCUBE 28 Jul 17:05:34 17:06:44 11° 303° (WNW) 17:07:54 437.505
KKS-1 28 Jul 17:06:04 17:10:33 66° 287° (WNW) 17:15:00 437.445
SO-50 28 Jul 17:06:18 17:10:49 53° 241° (WSW) 17:15:12 436.795
Cubesat XI-IV 28 Jul 17:18:24 17:23:03 30° 65° (ENE) 17:27:42 437.490
HORYU 2 28 Jul 17:29:31 17:33:42 38° 262° (W) 17:37:56 437.375
PHONESAT 2.4 28 Jul 17:30:56 17:33:44 32° 166° (SSE) 17:36:32 2401.200-2431.200
Cosmos 2499 28 Jul 17:31:41 17:39:14 30° 293° (WNW) 17:46:37 435.465 / 435.565
CUBESAT XI-V 28 Jul 17:37:46 17:42:03 37° 97° (E) 17:46:21 437.345
DOVE 4 28 Jul 17:39:02 17:41:24 14° 60° (ENE) 17:43:50 437.250
STARS 28 Jul 17:40:44 17:45:07 56° 287° (WNW) 17:49:27 437.465
CUTE-I 28 Jul 17:40:58 17:46:05 47° 69° (ENE) 17:51:14 437.470
GOMX 1 28 Jul 17:51:50 17:55:42 37° 70° (ENE) 17:59:46 467.674
MOZHAYETS 4 28 Jul 17:52:09 17:55:41 22° 295° (WNW) 17:59:12
NOAA 15 28 Jul 17:56:01 18:01:16 83° 73° (ENE) 18:06:32 137.62
GONETS M04 28 Jul 17:56:21 18:01:47 18° 302° (WNW) 18:07:17
RS-15 28 Jul 18:12:06 18:20:54 24° 261° (W) 18:29:38 29.354- 29.394
LilacSat-2 28 Jul 18:20:03 18:23:55 77° 257° (WSW) 18:27:51 437.200
